NAYIF-1 (EO-88) (42017 NORAD) Tracking and Keplerian Element Data

This shows tracking and keplerian element data for the satellite.

Feedback or suggestion? Click here.




ElementValue
Catalog42017
NameNAYIF-1 (EO-88)
Epoch Orbit35472
Epoch Day176.10773608
Epoch Year2023
RAAN247.8679
Inclination97.2029
Eccentricity0.0005492
Argument of Perigee238.5591
Mean Anonmoly121.5144
Mean Motion15.86317946
Decay Rate0.00465961
L11 42017U 17008BX 23176.10773608 .00465961 00000+0 17821-2 0 9992
L22 42017 97.2029 247.8679 0005492 238.5591 121.5144 15.86317946354720



Live tracking and technical data element details for NAYIF-1 (EO-88) (NORAD 42017). NAYIF-1 (EO-88) can be tracked NOW for your location showing map with azimuth and elevation plus other details from your city location.







IsCatalogInMostPopularTable: catalog: 42017, numindb: 878
Update: records affected: 1



GetName: 42017 NAYIF-1 (EO-88)

Hit Count: updated at: Fri, 14 Feb 2025 14:54:46 GMT